DW6650 Weather Reports


Display with metric or nautical units.
time (UTC)temp
F
wind
direction
speed
MPH
gust
MPH
rain 1hr
in
rain 24hr
in
rain mn
in
humidity
%
barometer
mb
20260502163036 63 248 1.0 4.0 0.00 0.26 0.25 89 1013.4
20260502162537 63 248 1.0 6.0 0.00 0.26 0.25 87 1013.5
20260502162016 62 248 1.0 3.0 0.00 0.26 0.25 87 1013.3
20260502161536 62 248 1.0 4.0 0.00 0.26 0.25 90 1013.3
20260502161016 62 270 0.0 3.0 0.00 0.26 0.25 91 1013.0
20260502160516 62 270 0.0 1.0 0.00 0.26 0.25 92 1013.0
20260502152016 60 48 0.0 0.0 0.00 0.26 0.25 94 1012.4
20260502151516 60 45 0.0 1.0 0.00 0.26 0.25 94 1012.8
20260502151018 60 248 1.0 4.0 0.00 0.26 0.25 95 1013.1
20260502150518 60 248 1.0 4.0 0.00 0.26 0.25 96 1013.1
20260502130515 57 315 0.0 1.0 0.00 0.25 0.24 97 1013.1
20260502123515 56 248 0.0 1.0 0.00 0.25 0.24 97 1013.7
20260502123016 56 257 0.0 0.0 0.00 0.25 0.24 96 1013.4
20260502122516 56 248 1.0 3.0 0.00 0.25 0.24 96 1013.3
20260502122015 56 248 1.0 3.0 0.00 0.25 0.24 97 1013.2
20260502121537 56 270 0.0 2.0 0.00 0.25 0.24 97 1012.7
20260502121017 56 266 0.0 0.0 0.00 0.25 0.24 97 1012.7
20260502120538 56 248 0.0 2.0 0.00 0.25 0.24 96 1012.8
20260502115517 56 59 0.0 0.0 0.00 0.25 0.24 97 1013.1
20260502115021 56 63 0.0 0.0 0.00 0.25 0.24 97 1013.0
20260502114537 56 63 0.0 0.0 0.00 0.25 0.24 97 1012.3
20260502114017 56 63 0.0 0.0 0.00 0.25 0.24 97 1011.8
20260502113517 56 63 0.0 0.0 0.00 0.25 0.24 96 1011.5
20260502113037 56 68 0.0 1.0 0.00 0.25 0.24 96 1011.3
20260502112538 56 257 0.0 0.0 0.01 0.25 0.24 96 1011.8
20260502112017 56 271 0.0 0.0 0.01 0.25 0.24 96 1012.1
20260502111517 55 257 0.0 0.0 0.01 0.25 0.24 96 1012.5
20260502111057 55 248 0.0 1.0 0.01 0.25 0.24 96 1012.7
20260502110517 55 248 0.0 1.0 0.01 0.25 0.24 96 1012.8
20260502110017 55 248 1.0 3.0 0.01 0.25 0.24 96 1012.9
20260502105517 55 248 1.0 3.0 0.01 0.25 0.24 96 1012.8
20260502105017 55 248 1.0 3.0 0.01 0.25 0.24 96 1012.6
20260502104517 55 270 1.0 3.0 0.01 0.25 0.24 96 1012.6
20260502104017 55 248 1.0 3.0 0.01 0.25 0.24 96 1012.6
20260502103517 55 270 0.0 3.0 0.01 0.25 0.24 96 1012.6
20260502103019 55 248 2.0 4.0 0.01 0.25 0.24 96 1012.7
20260502102517 55 248 1.0 3.0 0.01 0.24 0.23 96 1012.4
20260502102017 55 248 1.0 3.0 0.01 0.24 0.23 96 1012.2
20260502101517 55 248 1.0 3.0 0.01 0.24 0.23 96 1012.1
20260502101018 55 248 0.0 1.0 0.01 0.24 0.23 96 1011.9
20260502100522 55 248 0.0 2.0 0.01 0.24 0.23 96 1012.0
20260502091517 55 153 0.0 0.0 0.01 0.23 0.22 96 1011.9
20260502091017 55 153 0.0 0.0 0.02 0.23 0.22 96 1012.0
20260502090517 55 153 0.0 0.0 0.02 0.23 0.22 96 1011.9
20260502071517 57 259 0.0 0.0 0.07 0.19 0.18 95 1012.6
20260502071017 57 259 0.0 0.0 0.08 0.19 0.18 95 1012.8
20260502070537 57 259 0.0 0.0 0.08 0.19 0.18 95 1012.8
20260502070017 57 259 0.0 0.0 0.08 0.18 0.17 95 1013.0
20260502065518 57 259 0.0 0.0 0.08 0.18 0.17 95 1013.1
20260502065037 57 259 0.0 0.0 0.08 0.17 0.16 95 1013.3
20260502064517 57 259 0.0 0.0 0.07 0.16 0.15 95 1013.5
20260502064037 57 259 0.0 0.0 0.06 0.15 0.14 95 1013.6
20260502063516 57 259 0.0 0.0 0.06 0.15 0.14 95 1013.9
20260502063016 57 259 0.0 0.0 0.06 0.14 0.13 95 1014.0
20260502062517 57 259 0.0 0.0 0.05 0.13 0.12 95 1013.8
20260502062117 57 259 0.0 0.0 0.06 0.13 0.12 95 1013.9
20260502061536 57 259 0.0 0.0 0.05 0.12 0.11 95 1013.9
20260502061017 57 259 0.0 0.0 0.04 0.11 0.10 95 1014.0
20260502060517 58 259 0.0 0.0 0.04 0.11 0.10 95 1014.0
20260502060016 58 259 0.0 0.0 0.04 0.10 0.09 95 1014.3
20260502055516 58 259 0.0 0.0 0.04 0.10 0.09 95 1014.4
20260502055016 58 259 0.0 0.0 0.04 0.09 0.08 95 1014.3
20260502054516 58 259 0.0 0.0 0.04 0.09 0.08 95 1014.3
20260502054017 58 259 0.0 0.0 0.04 0.09 0.08 94 1014.2
20260502053516 58 259 0.0 0.0 0.05 0.09 0.08 94 1014.0
20260502053016 58 259 0.0 0.0 0.04 0.08 0.07 94 1013.8
20260502052516 58 259 0.0 0.0 0.05 0.08 0.07 94 1013.8
20260502052016 58 259 0.0 0.0 0.04 0.07 0.06 94 1013.9
20260502051537 58 259 0.0 0.0 0.04 0.07 0.06 94 1013.7
20260502051016 58 259 0.0 0.0 0.04 0.07 0.06 94 1013.6
20260502050517 58 259 0.0 0.0 0.05 0.07 0.06 94 1013.6
20260502050036 58 259 0.0 0.0 0.05 0.06 0.05 94 1013.7
20260502045536 58 259 0.0 0.0 0.05 0.06 0.05 94 1013.8
20260502045016 58 259 0.0 0.0 0.04 0.05 0.04 94 1013.8
20260502044516 58 259 0.0 0.0 0.04 0.05 0.04 93 1013.6
20260502044016 58 259 0.0 0.0 0.04 0.05 0.04 93 1013.7
20260502043517 59 259 0.0 0.0 0.03 0.04 0.03 93 1013.8
20260502043016 59 270 0.0 1.0 0.03 0.04 0.03 93 1014.0
20260502042516 59 259 0.0 0.0 0.02 0.03 0.02 94 1014.1
20260502042016 59 259 0.0 0.0 0.02 0.03 0.02 93 1014.2
20260502041536 59 259 0.0 0.0 0.02 0.03 0.02 93 1014.3
20260502041016 59 259 0.0 0.0 0.02 0.03 0.02 93 1014.4
20260502040516 59 270 0.0 2.0 0.02 0.02 0.01 93 1014.6
20260502040016 59 248 0.0 2.0 0.01 0.01 0.01 93 1014.7
20260502035517 59 248 0.0 1.0 0.01 0.01 0.01 93 1014.8
20260502035100 59 257 0.0 0.0 0.01 0.01 0.01 93 1014.6
20260502034536 59 248 0.0 1.0 0.01 0.01 0.01 93 1014.5
20260502034016 59 257 0.0 0.0 0.01 0.01 0.01 92 1014.4
20260502033537 59 257 0.0 0.0 0.01 0.01 0.01 92 1014.3
20260502033037 59 257 0.0 0.0 0.01 0.01 0.01 92 1014.3
20260502032517 59 257 0.0 0.0 0.01 0.01 0.01 92 1014.1
20260502032017 60 257 0.0 0.0 0.01 0.01 0.01 91 1014.2
20260502031537 60 257 0.0 0.0 0.01 0.01 0.01 91 1014.3
20260502031016 60 248 0.0 1.0 0.01 0.01 0.01 91 1014.4
20260502030536 60 257 0.0 0.0 0.00 0.00 0.00 91 1014.4
20260502030016 60 257 0.0 0.0 0.00 0.00 0.00 91 1014.3
20260502025536 60 257 0.0 0.0 0.00 0.00 0.00 90 1014.0
20260502025017 60 257 0.0 0.0 0.00 0.00 0.00 90 1014.0
20260502024516 60 257 0.0 0.0 0.00 0.00 0.00 89 1013.8
20260502024037 60 257 0.0 0.0 0.00 0.00 0.00 88 1013.6
20260502023516 61 257 0.0 0.0 0.00 0.00 0.00 88 1013.7
20260502023016 61 257 0.0 0.0 0.00 0.00 0.00 88 1013.8
20260502022536 61 257 0.0 0.0 0.00 0.00 0.00 87 1013.9
20260502022016 61 257 0.0 0.0 0.00 0.00 0.00 86 1013.9
20260502021537 61 257 0.0 0.0 0.00 0.00 0.00 86 1013.9
20260502021037 61 248 0.0 1.0 0.00 0.00 0.00 85 1014.0
20260502020516 61 248 0.0 1.0 0.00 0.00 0.00 85 1014.0
20260502020038 61 338 0.0 1.0 0.00 0.00 0.00 86 1014.0
20260502015536 61 348 0.0 0.0 0.00 0.00 0.00 85 1013.9
20260502015036 61 348 0.0 0.0 0.00 0.00 0.00 85 1013.7
20260502014536 61 348 0.0 0.0 0.00 0.00 0.00 85 1013.6
20260502014036 61 348 0.0 0.0 0.00 0.00 0.00 85 1013.5
20260502013516 61 348 0.0 0.0 0.00 0.00 0.00 84 1013.2
20260502013016 61 348 0.0 0.0 0.00 0.00 0.00 84 1013.2
20260502012516 61 348 0.0 0.0 0.00 0.00 0.00 84 1013.2
20260502012016 61 348 0.0 0.0 0.00 0.00 0.00 84 1013.1
20260502011517 61 348 0.0 0.0 0.00 0.00 0.00 83 1013.2
20260502011016 61 348 0.0 0.0 0.00 0.00 0.00 83 1013.2
20260502010516 61 348 0.0 0.0 0.00 0.00 0.00 82 1013.2
20260502010016 62 348 0.0 0.0 0.00 0.00 0.00 82 1013.1
20260502005516 62 348 0.0 0.0 0.00 0.00 0.00 81 1013.0
20260502005037 62 348 0.0 0.0 0.00 0.00 0.00 81 1013.0
20260502004516 62 348 0.0 0.0 0.00 0.00 0.00 81 1013.0
20260502004016 62 348 0.0 0.0 0.00 0.00 0.00 81 1012.8
20260502003538 62 348 0.0 0.0 0.00 0.00 0.00 81 1012.7
20260502003016 62 348 0.0 0.0 0.00 0.00 0.00 81 1012.7
20260502002536 63 348 0.0 0.0 0.00 0.00 0.00 79 1012.5
20260502002016 63 348 0.0 0.0 0.00 0.00 0.00 78 1012.6
20260502001516 63 348 0.0 0.0 0.00 0.00 0.00 79 1012.7
20260502001016 64 348 0.0 0.0 0.00 0.00 0.00 78 1012.8
20260502000516 64 348 0.0 0.0 0.00 0.00 0.00 77 1012.8
20260502000016 64 348 0.0 0.0 0.00 0.00 0.00 77 1012.8
20260501235536 64 348 0.0 0.0 0.00 0.00 0.00 77 1012.8
20260501235016 64 348 0.0 0.0 0.00 0.00 0.00 75 1012.6
20260501234516 65 348 0.0 0.0 0.00 0.00 0.00 74 1012.6
20260501234016 65 348 0.0 0.0 0.00 0.00 0.00 73 1012.6
20260501233516 65 348 0.0 0.0 0.00 0.00 0.00 74 1012.7
20260501233016 65 348 0.0 0.0 0.00 0.00 0.00 74 1012.7
20260501232518 65 348 0.0 0.0 0.00 0.00 0.00 73 1012.7
20260501232016 65 348 0.0 0.0 0.00 0.00 0.00 72 1012.7
20260501231516 66 348 0.0 0.0 0.00 0.00 0.00 72 1012.5
20260501231016 66 348 0.0 0.0 0.00 0.00 0.00 71 1012.5
20260501230520 66 348 0.0 0.0 0.00 0.00 0.00 70 1012.3
20260501230016 66 23 0.0 2.0 0.00 0.00 0.00 68 1012.3
20260501225516 66 248 0.0 1.0 0.00 0.00 0.00 70 1012.5
20260501225016 66 248 0.0 1.0 0.00 0.00 0.00 68 1012.6
20260501224516 67 248 0.0 2.0 0.00 0.00 0.00 67 1012.6
20260501224016 67 248 0.0 2.0 0.00 0.00 0.00 69 1012.6
20260501223516 67 23 0.0 2.0 0.00 0.00 0.00 71 1012.4
20260501223016 67 338 0.0 2.0 0.00 0.00 0.00 70 1012.3
20260501222516 67 0 0.0 1.0 0.00 0.00 0.00 69 1012.2
20260501222016 67 0 0.0 2.0 0.00 0.00 0.00 70 1012.1
20260501221516 67 68 0.0 2.0 0.00 0.00 0.00 70 1012.1
20260501221016 67 0 0.0 2.0 0.00 0.00 0.00 71 1012.3
20260501220516 67 68 0.0 1.0 0.00 0.00 0.00 69 1012.4
20260501220036 67 71 0.0 0.0 0.00 0.00 0.00 69 1012.4
20260501215516 67 158 0.0 1.0 0.00 0.00 0.00 69 1012.5
20260501215016 67 68 0.0 2.0 0.00 0.00 0.00 68 1012.6
20260501214516 67 0 0.0 1.0 0.00 0.00 0.00 70 1012.8
20260501214015 67 0 0.0 2.0 0.00 0.00 0.00 69 1012.7
20260501213516 67 68 1.0 3.0 0.00 0.00 0.00 71 1012.7
20260501213016 67 68 0.0 1.0 0.00 0.00 0.00 72 1012.8
20260501212538 67 180 0.0 3.0 0.00 0.00 0.00 71 1012.9
20260501212017 68 225 0.0 1.0 0.00 0.00 0.00 72 1012.9
20260501211536 68 248 0.0 2.0 0.00 0.00 0.00 71 1013.2
20260501211017 68 248 1.0 5.0 0.00 0.00 0.00 68 1013.3
20260501210517 68 248 1.0 3.0 0.00 0.00 0.00 67 1013.3
20260501210017 68 248 1.0 4.0 0.00 0.00 0.00 66 1013.3
20260501205517 68 248 1.0 4.0 0.00 0.00 0.00 64 1013.3
20260501205043 68 270 1.0 4.0 0.00 0.00 0.00 65 1013.3
20260501204543 69 248 0.0 4.0 0.00 0.00 0.00 66 1013.4
20260501204017 69 113 0.0 1.0 0.00 0.00 0.00 67 1013.4
20260501203517 69 248 1.0 3.0 0.00 0.00 0.00 66 1013.4
20260501203017 68 248 1.0 2.0 0.00 0.00 0.00 66 1013.4
20260501202517 68 270 0.0 4.0 0.00 0.00 0.00 66 1013.5
20260501202017 68 248 1.0 5.0 0.00 0.00 0.00 66 1013.5
20260501201517 68 248 2.0 5.0 0.00 0.00 0.00 65 1013.6
20260501201017 68 248 1.0 3.0 0.00 0.00 0.00 65 1013.6
20260501200517 69 203 0.0 1.0 0.00 0.00 0.00 65 1013.6
20260501200017 69 248 1.0 3.0 0.00 0.00 0.00 66 1013.7
20260501195537 69 248 2.0 6.0 0.00 0.00 0.00 65 1013.7
20260501195017 69 248 1.0 4.0 0.00 0.00 0.00 64 1013.6
20260501194538 69 225 1.0 5.0 0.00 0.00 0.00 65 1013.6
20260501194018 69 248 0.0 4.0 0.00 0.00 0.00 65 1013.7
20260501193517 69 248 0.0 2.0 0.00 0.00 0.00 65 1013.8
20260501193037 69 248 1.0 4.0 0.00 0.00 0.00 65 1014.0
20260501192537 69 248 2.0 6.0 0.00 0.00 0.00 63 1013.9
20260501192038 69 248 1.0 7.0 0.00 0.00 0.00 63 1013.8
20260501191517 69 248 0.0 1.0 0.00 0.00 0.00 66 1013.7
20260501191037 69 113 1.0 2.0 0.00 0.00 0.00 63 1013.8
20260501190519 69 248 1.0 5.0 0.00 0.00 0.00 65 1013.7
20260501190017 69 248 1.0 4.0 0.00 0.00 0.00 65 1013.8
20260501185517 69 113 0.0 2.0 0.00 0.00 0.00 66 1014.0
20260501185017 69 248 1.0 3.0 0.00 0.00 0.00 65 1013.9
20260501184517 69 248 2.0 4.0 0.00 0.00 0.00 64 1014.0
20260501184017 69 270 1.0 6.0 0.00 0.00 0.00 65 1014.1
20260501183537 69 248 2.0 7.0 0.00 0.00 0.00 64 1014.2
20260501183017 69 248 1.0 6.0 0.00 0.00 0.00 63 1014.2
20260501182517 69 248 2.0 7.0 0.00 0.00 0.00 63 1014.1
20260501182017 69 225 2.0 6.0 0.00 0.00 0.00 62 1014.3
20260501181537 69 225 2.0 8.0 0.00 0.00 0.00 64 1014.4
20260501181017 69 248 2.0 6.0 0.00 0.00 0.00 64 1014.2
20260501180537 69 248 1.0 4.0 0.00 0.00 0.00 64 1014.2
20260501180037 69 248 1.0 5.0 0.00 0.00 0.00 66 1014.2
20260501175537 69 248 1.0 6.0 0.00 0.00 0.00 65 1014.0
20260501175017 69 270 1.0 4.0 0.00 0.00 0.00 66 1014.0
20260501174518 69 248 3.0 8.0 0.00 0.00 0.00 66 1014.3
20260501174017 69 248 1.0 4.0 0.00 0.00 0.00 66 1014.2
20260501173517 69 248 1.0 5.0 0.00 0.00 0.00 67 1014.0
20260501173017 69 248 1.0 4.0 0.00 0.00 0.00 66 1014.1
20260501172537 69 248 0.0 1.0 0.00 0.00 0.00 67 1014.1
20260501172017 69 225 1.0 4.0 0.00 0.00 0.00 67 1014.3
20260501171517 69 248 0.0 2.0 0.00 0.00 0.00 68 1014.4
20260501171037 69 225 0.0 3.0 0.00 0.00 0.00 66 1014.3
20260501170517 69 203 0.0 3.0 0.00 0.00 0.00 67 1014.3
20260501170037 68 248 2.0 5.0 0.00 0.00 0.00 66 1014.3
20260501165517 68 248 3.0 5.0 0.00 0.00 0.00 65 1014.3
20260501165017 68 248 2.0 6.0 0.00 0.00 0.00 67 1014.4
20260501164517 69 248 2.0 6.0 0.00 0.00 0.00 65 1014.4
20260501164017 69 248 2.0 5.0 0.00 0.00 0.00 64 1014.3
20260501163517 69 248 2.0 6.0 0.00 0.00 0.00 64 1014.2